DateTimeUTC,F1_A11,F1_S11,BsB_S11,BsG_S11,BsR_S11,BbsB_S11,BbsG_S11,BbsR_S11,BaB_A11,BaG_A11,BaR_A11,Tu_S11,T_S11,Uu_S11,U_S11,P_S11,T1_A11
2021-05-03T09:00:00Z,00000200,21000000,,,,,,,0000.34,0000.25,0000.14,17.9,25.0,,00.0,0680.9,31.1
2021-05-03T09:01:00Z,00000200,21000000,,,,,,,-000.09,0000.27,0000.47,17.9,25.0,,00.0,0680.9,31.1
2021-05-03T09:02:00Z,00000200,21000000,,,,,,,0000.47,-000.01,-000.29,17.9,25.1,,00.0,0680.9,31.1
2021-05-03T09:03:00Z,00000200,61000000,,,,,,,0000.82,0001.33,0001.14,17.9,25.0,,00.0,0680.9,31.1
2021-05-03T09:04:00Z,00000200,41000000,0003.96,0002.95,0001.59,0001.17,0000.59,0000.33,0001.66,0001.37,0000.88,18.1,24.9,,00.0,0681.8,31.1
2021-05-03T09:05:00Z,00000200,01000000,0003.99,0003.02,0001.55,0000.94,0000.56,0000.54,0001.35,0001.14,0000.91,18.2,24.9,,00.0,0681.9,31.1
2021-05-03T09:06:00Z,00000200,01000000,0004.45,0002.79,0001.76,0000.86,0000.67,0000.32,0001.38,0001.29,0000.79,18.2,24.9,,00.0,0681.9,31.1
2021-05-03T09:07:00Z,00000200,01000000,0003.67,0002.75,0001.55,0000.91,0000.21,0000.51,0001.38,0000.99,0000.55,18.2,24.9,,00.0,0681.9,31.1
2021-05-03T09:08:00Z,00000200,01000000,0004.06,0002.54,0001.75,0000.91,0000.56,0000.44,0000.31,0000.29,0000.65,18.2,24.9,,00.0,0681.9,31.1
2021-05-03T09:09:00Z,00000200,01000000,0003.26,0002.31,0000.85,0000.76,0000.31,0000.16,0000.63,0000.56,0000.52,18.2,24.9,,00.0,0681.9,31.1
2021-05-03T09:10:00Z,00000200,01000000,0002.89,0002.32,0001.14,0000.40,0000.49,0000.26,0000.37,0000.12,0000.07,18.2,24.8,,00.0,0681.9,31.1
2021-05-03T09:11:00Z,00000200,01000000,0002.71,0002.00,0001.15,0000.66,0000.52,0000.12,0000.59,0000.63,0000.38,18.2,24.9,,00.0,0681.9,31.1
2021-05-03T09:12:00Z,00000200,01000000,0002.90,0002.10,0001.08,0000.94,0000.44,0000.12,0001.17,0001.35,0000.67,18.2,24.9,,00.0,0681.9,31.1
2021-05-03T09:13:00Z,00000200,01000000,0003.32,0001.80,0001.14,0000.87,0000.45,0000.03,0001.12,0000.68,0000.88,18.3,24.9,,00.0,0681.9,31.1
2021-05-03T09:14:00Z,00000200,01000000,0002.92,0001.83,0001.01,0000.04,0000.29,0000.14,0000.54,0000.46,0000.18,18.3,24.9,,00.0,0681.9,31.1
2021-05-03T09:15:00Z,00000200,01000000,0002.71,0001.93,0001.01,0000.36,0000.25,-000.03,0000.69,0000.72,0000.80,18.3,24.9,,00.0,0681.9,31.1
2021-05-03T09:16:00Z,00000200,01000000,0002.95,0001.89,0001.17,0000.99,0000.53,0000.50,0001.19,0001.45,0000.93,18.3,24.9,,00.0,0681.9,31.1
2021-05-03T09:17:00Z,00000200,01000000,0002.08,0002.11,0001.02,0000.74,0000.39,0000.52,0000.98,0000.85,0000.61,18.3,24.9,,00.0,0681.9,31.1
2021-05-03T09:18:00Z,00000200,01000000,0002.97,0001.74,0001.17,0000.44,0000.60,0000.15,0001.06,0000.55,0000.35,18.3,24.9,,00.0,0681.9,31.1
2021-05-03T09:19:00Z,00000200,01000000,0002.19,0001.80,0000.87,0000.39,0000.20,0000.29,0000.53,0000.38,0000.16,18.3,24.9,,00.0,0681.9,31.1
2021-05-03T09:20:00Z,00000200,01000000,0002.11,0001.80,0001.00,0000.65,0000.47,0000.33,0000.78,0000.70,0000.77,18.3,24.9,,00.0,0681.9,31.1
2021-05-03T09:21:00Z,00000200,01000000,0002.59,0001.85,0000.75,0000.47,0000.32,0000.16,0001.19,0000.82,0000.89,18.3,24.9,,00.0,0681.9,31.1
2021-05-03T09:22:00Z,00000200,01000000,0002.51,0001.82,0000.86,0000.32,0000.66,0000.12,0001.06,0001.07,0000.16,18.3,24.9,,00.0,0681.9,31.1
2021-05-03T09:23:00Z,00000200,01000000,0002.91,0002.08,0000.78,0000.40,0000.21,0000.43,0001.09,0001.25,0001.28,18.3,24.9,,00.0,0681.9,31.1
2021-05-03T09:24:00Z,00000200,01000000,0003.20,0002.31,0000.95,0000.84,0000.37,0000.30,0001.31,0000.92,0000.85,18.3,24.9,,00.0,0681.9,31.1
2021-05-03T09:25:00Z,00000200,01000000,0002.56,0001.92,0001.26,0000.79,0000.47,-000.03,0000.78,0000.84,0000.36,18.4,24.9,,00.0,0681.9,31.1
2021-05-03T09:26:00Z,00000200,01000000,0002.97,0002.16,0001.10,0000.69,0000.59,0000.31,0001.27,0001.33,0001.01,18.4,24.9,,00.0,0681.9,31.1
2021-05-03T09:27:00Z,00000200,01000000,0003.18,0002.07,0001.33,0000.76,0000.39,0000.45,0001.18,0001.09,0000.83,18.4,24.9,,00.0,0681.9,31.1
2021-05-03T09:28:00Z,00000200,01000000,0003.01,0002.09,0001.51,0000.77,0000.47,0000.50,0001.39,0001.07,0000.59,18.4,24.9,,00.0,0681.9,31.1
2021-05-03T09:29:00Z,00000200,01000000,0002.43,0002.29,0000.82,0000.36,0000.65,0000.05,0001.01,0000.86,0000.85,18.4,24.9,,00.0,0681.9,31.1
2021-05-03T09:30:00Z,00000200,01000000,0002.92,0002.32,0001.10,0000.39,0000.62,0000.34,0001.22,0001.45,0000.46,18.4,25.0,,00.0,0681.9,31.1
2021-05-03T09:31:00Z,00000200,01000000,0003.21,0002.43,0001.24,0000.78,0000.39,0000.50,0001.39,0000.70,0000.99,18.4,25.0,,00.0,0681.9,31.1
2021-05-03T09:32:00Z,00000200,01000000,0002.87,0002.13,0001.32,0000.68,0000.42,0000.31,0000.92,0000.81,0000.75,18.4,25.0,,00.0,0681.9,31.1
2021-05-03T09:33:00Z,00000200,01000000,0002.76,0002.21,0001.50,0000.43,0000.35,0000.28,0000.98,0001.25,0000.88,18.4,25.0,,00.0,0681.9,31.1
2021-05-03T09:34:00Z,00000200,01000000,0002.65,0001.98,0001.06,0000.96,0000.14,0000.17,0000.99,0000.60,0000.58,18.4,25.0,,00.0,0681.9,31.2
2021-05-03T09:35:00Z,00000200,01000000,0002.68,0002.32,0001.06,0000.72,0000.57,0000.26,0001.05,0000.88,0000.61,18.4,25.0,,00.0,0681.9,31.1
2021-05-03T09:36:00Z,00000200,01000000,0002.68,0002.03,0001.00,0000.54,0000.37,0000.35,0001.23,0001.47,0000.82,18.5,25.0,,00.0,0681.9,31.1
2021-05-03T09:37:00Z,00000200,01000000,0002.95,0001.93,0001.14,0000.98,0000.60,0000.56,0001.04,0000.66,0000.38,18.5,25.0,,00.0,0681.9,31.2
2021-05-03T09:38:00Z,00000200,01000000,0002.84,0002.20,0001.33,0000.43,0000.40,0000.19,0001.37,0001.54,0000.81,18.5,25.0,,00.0,0681.9,31.1
2021-05-03T09:39:00Z,00000200,01000000,0003.19,0002.62,0001.45,0000.83,0000.37,0000.34,0001.54,0000.99,0001.00,18.5,25.0,,00.0,0681.8,31.1
2021-05-03T09:40:00Z,00000200,01000000,0003.58,0002.10,0001.36,0000.40,0000.38,0000.40,0001.10,0001.29,0000.89,18.5,25.0,,00.0,0681.8,31.1
2021-05-03T09:41:00Z,00000200,01000000,0003.71,0002.09,0001.20,0000.69,0000.29,0000.63,0000.83,0000.41,0000.53,18.5,25.0,,00.0,0681.8,31.1
2021-05-03T09:42:00Z,00000200,01000000,0002.73,0002.01,0000.73,0000.59,0000.16,0000.32,0000.97,0001.46,0000.85,18.5,25.0,,00.0,0681.8,31.1
2021-05-03T09:43:00Z,00000200,01000000,0002.69,0001.99,0001.18,0000.83,0000.65,0000.04,0000.98,0000.83,0000.87,18.5,25.0,,00.0,0681.8,31.1
2021-05-03T09:44:00Z,00000200,01000000,0003.03,0001.95,0001.04,0000.44,0000.59,0000.39,0001.27,0000.60,0000.16,18.6,25.0,,00.0,0681.8,31.1
2021-05-03T09:45:00Z,00000200,01000000,0002.68,0001.93,0001.37,0000.90,0000.32,0000.14,0001.34,0001.23,0000.85,18.6,25.1,,00.0,0681.8,31.2
2021-05-03T09:46:00Z,00000200,01000000,0002.19,0002.20,0001.24,0000.38,0000.46,-000.04,0001.02,0001.39,0000.98,18.6,25.1,,00.0,0681.8,31.1
2021-05-03T09:47:00Z,00000200,01000000,0002.65,0002.04,0001.09,0000.65,0000.44,0000.26,0001.17,0000.83,0000.65,18.6,25.1,,00.0,0681.8,31.1
2021-05-03T09:48:00Z,00000200,01000000,0003.07,0002.09,0001.59,0000.68,0000.67,0000.57,0000.72,0000.68,0000.70,18.6,25.1,,00.0,0681.8,31.1
2021-05-03T09:49:00Z,00000200,01000000,0002.99,0001.88,0000.95,0000.73,0000.33,0000.24,0001.04,0000.53,0000.61,18.6,25.1,,00.0,0681.8,31.1
2021-05-03T09:50:00Z,00000200,01000000,0002.94,0002.14,0001.24,0000.60,0000.32,0000.39,0000.73,0000.85,0000.46,18.6,25.1,,00.0,0681.8,31.2
2021-05-03T09:51:00Z,00000200,01000000,0002.81,0002.33,0001.12,0001.20,0000.19,0000.17,0000.95,0001.23,0000.34,18.6,25.1,,00.0,0681.8,31.1
2021-05-03T09:52:00Z,00000200,01000000,0002.82,0001.96,0000.87,0001.09,0000.18,0000.32,0000.96,0000.34,0000.90,18.7,25.1,,00.0,0681.8,31.1
2021-05-03T09:53:00Z,00000200,01000000,0001.96,0001.83,0001.12,0000.71,0000.59,0000.29,0001.17,0000.79,0000.55,18.7,25.1,,00.0,0681.7,31.1
2021-05-03T09:54:00Z,00000200,01000000,0002.39,0001.99,0000.99,0000.43,0000.61,-000.03,0000.68,0001.18,0000.73,18.7,25.1,,00.0,0681.7,31.2
2021-05-03T09:55:00Z,00000200,01000000,0002.80,0002.04,0000.81,0000.22,0000.34,0000.23,0001.12,0000.88,0000.85,18.7,25.1,,00.0,0681.7,31.1
2021-05-03T09:56:00Z,00000200,01000000,0002.81,0001.77,0001.24,0000.51,0000.61,0000.67,0001.03,0001.04,0000.58,18.7,25.1,,00.0,0681.7,31.1
2021-05-03T09:57:00Z,00000200,41000000,,,,,,,0000.96,0000.83,0000.40,18.8,25.2,,00.0,0681.7,31.2
2021-05-03T09:58:00Z,00000200,61000000,,,,,,,-000.62,-000.41,-000.26,18.5,25.3,,00.0,0680.7,31.1
2021-05-03T09:59:00Z,00000200,21000000,,,,,,,0000.03,-000.44,-000.18,18.5,25.4,,00.0,0680.7,31.1
